Volver al catálogo

TIANMU-1 QIXIANG XINGZOU 02

ActivoMeteoSSO
NORAD 55137·PAYLOAD·🇨🇳 China
Este nombre de satélite aún no ha sido confirmado por fuentes oficiales.

Lanzado Jan 9, 2023 desde Jiuquan Satellite Launch Center

Loading…

Próximos Pases (próximas 24 horas)

TLE

ActualizadoSource: Space-Track

Época: Sep 14, 2026, 15:25 UTC

1 55137U 23003E   26257.64238975  .00021180  00000-0  27488-3 0  9999
2 55137  97.1355 333.1792 0004605 130.7346 229.4312 15.58844340206182

Sigue TIANMU-1 QIXIANG XINGZOU 02 en tiempo real con AllMySat

Download on the App Store